Sydney, Australia

12:47 PM AEST on September 20, 2017 (GMT +1000)
Kingsford Smith International

Weather History for YSSY - September, 2013

Change the Weather History Date:

Friday, September 6, 2013

  Actual Average Record
Temperature  
Mean Temperature 66 °F -  
Max Temperature 72 °F 70 °F 83 °F (2012)
Min Temperature 61 °F 51 °F 46 °F (2004)
Cooling Degree Days 2    
Growing Degree Days 16 (Base 50)    
Moisture  
Dew Point 58 °F    
Average Humidity 74    
Maximum Humidity 94    
Minimum Humidity 49    
Precipitation  
Precipitation 0.00 in 0.08 in - ()
Sea Level Pressure  
Sea Level Pressure 30.25 in    
Wind  
Wind Speed 9 mph ()    
Max Wind Speed 16 mph    
Max Gust Speed -    
Visibility 7.7 miles    
Events Fog    
Averages and records for this station are not official NWS values.
T = Trace of Precipitation, MM = Missing Value Source: Averaged Metar Reports

Daily Weather History Graph

Daily Weather History Graph

Search for Another Location

Airport or City:

Trip Planner

Search our weather history database for the weather conditions in past years. The results will help you decide how hot, cold, wet, or windy it might be!

Date:

Astronomy

Sep. 06, 2013 Rise Set
Actual Time 6:07 AM AEST 5:40 PM AEST
Civil Twilight 5:42 AM AEST 6:05 PM AEST
Nautical Twilight 5:13 AM AEST 6:34 PM AEST
Astronomical Twilight 4:44 AM AEST 7:03 PM AEST
Moon 6:06 AM AEST (9/6) 6:27 PM AEST (9/6)
Length of Visible Light 12h 23m
Length of Day
11h 33m
New Moon, 0% of the Moon is Illuminated
Sep 6
New Moon
Sep 13
First Quarter
Sep 19
Full
Sep 27
Last Quarter
Oct 5
New

Hourly Weather History & Observations

Time (AEST) Temp. Dew Point Humidity Pressure Visibility Wind Dir Wind Speed Gust Speed Precip Events Conditions
12:00 AM 67 °F 53 °F 52% 30.26 in 16 mi NNW 8.1 mph - -   Haze
12:00 AM 68.0 °F 53.6 °F 60% 30.24 in - NNW 8.1 mph - N/A   Clear
12:30 AM 66.2 °F 53.6 °F 64% 30.24 in - NW 8.1 mph - N/A   Clear
1:00 AM 66 °F 52 °F 50% 30.26 in - NW 8.1 mph - -  
1:00 AM 66.2 °F 51.8 °F 60% 30.24 in - NW 8.1 mph - N/A   Clear
1:30 AM 64.4 °F 50.0 °F 59% 30.24 in - NW 8.1 mph - N/A   Clear
2:00 AM 64 °F 51 °F 52% 30.24 in - NW 10.4 mph - -  
2:00 AM 64.4 °F 50.0 °F 59% 30.24 in - NW 10.4 mph - N/A   Clear
2:30 AM 62.6 °F 50.0 °F 63% 30.21 in - NW 9.2 mph - N/A   Clear
3:00 AM 64 °F 50 °F 49% 30.23 in 16 mi NW 9.2 mph - -   Haze
3:00 AM 64.4 °F 50.0 °F 59% 30.21 in - NW 9.2 mph - N/A   Clear
3:30 AM 64.4 °F 50.0 °F 59% 30.21 in - NW 12.7 mph - N/A   Clear
4:00 AM 63 °F 50 °F 53% 30.23 in - NW 10.4 mph - -  
4:00 AM 62.6 °F 50.0 °F 63% 30.21 in - NW 10.4 mph - N/A   Clear
4:30 AM 64.4 °F 50.0 °F 59% 30.24 in - NW 5.8 mph - N/A   Clear
5:00 AM 63 °F 50 °F 53% 30.25 in - North 4.6 mph - -  
5:00 AM 62.6 °F 50.0 °F 63% 30.24 in - North 4.6 mph - N/A   Clear
5:30 AM 64.4 °F 50.0 °F 59% 30.24 in - South 1.2 mph - N/A   Clear
6:00 AM 64 °F 58 °F 75% 30.28 in 16 mi South 8.1 mph - -   Haze
6:00 AM 64.4 °F 57.2 °F 77% 30.27 in - South 8.1 mph - N/A   Clear
6:30 AM 64.4 °F 60.8 °F 88% 30.27 in 5.6 mi South 13.8 mph - N/A   Mostly Cloudy
7:00 AM 64 °F 61 °F 85% 30.30 in - South 12.7 mph - -  
7:00 AM 64.4 °F 60.8 °F 88% 30.30 in 5.6 mi South 12.7 mph - N/A   Mostly Cloudy
7:30 AM 64.4 °F 60.8 °F 88% 30.30 in 6.2 mi South 13.8 mph - N/A   Mostly Cloudy
8:00 AM 65 °F 60 °F 80% 30.32 in - South 13.8 mph - -  
8:00 AM 64.4 °F 60.8 °F 88% 30.30 in 6.2 mi South 13.8 mph - N/A   Mostly Cloudy
8:30 AM 64.4 °F 60.8 °F 88% 30.30 in 6.2 mi South 12.7 mph - N/A   Mostly Cloudy
9:00 AM 66 °F 60 °F 76% 30.33 in 9 mi South 16.1 mph - -   Haze
9:00 AM 66.2 °F 60.8 °F 83% 30.33 in 6.2 mi South 16.1 mph - N/A   Mostly Cloudy
9:30 AM 66.2 °F 60.8 °F 83% 30.30 in 6.2 mi South 12.7 mph - N/A   Mostly Cloudy
10:00 AM 67 °F 60 °F 70% 30.32 in - South 15.0 mph - -  
10:00 AM 66.2 °F 59.0 °F 78% 30.30 in 6.2 mi South 15.0 mph - N/A   Mostly Cloudy
10:30 AM 66.2 °F 59.0 °F 78% 30.30 in 6.2 mi South 13.8 mph - N/A   Mostly Cloudy
11:00 AM 67 °F 60 °F 70% 30.30 in - South 12.7 mph - -  
11:00 AM 68.0 °F 59.0 °F 73% 30.30 in 6.2 mi South 12.7 mph - N/A   Mostly Cloudy
11:30 AM 68.0 °F 60.8 °F 78% 30.27 in 6.2 mi South 11.5 mph - N/A   Mostly Cloudy
12:00 PM 68 °F 61 °F 71% 30.28 in 12 mi South 11.5 mph - -   Haze
12:00 PM 68.0 °F 60.8 °F 78% 30.27 in 6.2 mi South 11.5 mph - N/A   Mostly Cloudy
12:30 PM 68.0 °F 60.8 °F 78% 30.24 in 6.2 mi SSE 8.1 mph - N/A   Mostly Cloudy
1:00 PM 69.8 °F 59.0 °F 68% 30.24 in 6.2 mi ESE 9.2 mph - N/A   Mostly Cloudy
1:30 PM 71.6 °F 59.0 °F 64% 30.24 in 6.2 mi ESE 11.5 mph - N/A   Mostly Cloudy
2:00 PM 71 °F 60 °F 61% 30.23 in - SE 12.7 mph - -  
2:30 PM 71.6 °F 59.0 °F 64% 30.21 in - SE 11.5 mph - N/A   Clear
3:00 PM 72 °F 59 °F 55% 30.22 in 16 mi SE 10.4 mph - -   Haze
3:00 PM 71.6 °F 59.0 °F 64% 30.21 in - SE 10.4 mph - N/A   Clear
3:30 PM 69.8 °F 59.0 °F 68% 30.18 in - ESE 9.2 mph - N/A   Clear
4:00 PM 69.8 °F 59.0 °F 68% 30.18 in - ESE 10.4 mph - N/A   Clear
4:30 PM 68.0 °F 59.0 °F 73% 30.18 in - East 9.2 mph - N/A   Clear
5:00 PM 68 °F 61 °F 71% 30.22 in - East 8.1 mph - -  
5:00 PM 68.0 °F 60.8 °F 78% 30.21 in - East 8.1 mph - N/A   Clear
5:30 PM 68.0 °F 60.8 °F 78% 30.21 in - East 9.2 mph - N/A   Clear
6:00 PM 67 °F 61 °F 77% 30.22 in 9 mi ESE 8.1 mph - -   Haze
6:00 PM 66.2 °F 60.8 °F 83% 30.21 in 6.2 mi ESE 8.1 mph - N/A   Mostly Cloudy
6:30 PM 66.2 °F 60.8 °F 83% 30.21 in 6.2 mi East 5.8 mph - N/A   Mostly Cloudy
7:00 PM 66 °F 61 °F 80% 30.23 in - SE 4.6 mph - -  
7:00 PM 66.2 °F 60.8 °F 83% 30.21 in 6.2 mi SE 4.6 mph - N/A   Mostly Cloudy
7:30 PM 66.2 °F 60.8 °F 83% 30.24 in 6.2 mi SSE 5.8 mph - N/A   Mostly Cloudy
8:00 PM 67 °F 61 °F 77% 30.25 in - SSE 4.6 mph - -  
8:00 PM 66.2 °F 60.8 °F 83% 30.24 in - SSE 4.6 mph - N/A   Clear
8:30 PM 66.2 °F 62.6 °F 88% 30.24 in 6.2 mi South 5.8 mph - N/A   Mostly Cloudy
9:00 PM 64 °F 62 °F 92% 30.25 in 7 mi SSE 4.6 mph - - Fog Patches of Fog
9:00 PM 64.4 °F 62.6 °F 94% 30.24 in 6.2 mi SSE 4.6 mph - N/A   Scattered Clouds
9:30 PM 64.4 °F 62.6 °F 94% 30.24 in 6.2 mi SSE 5.8 mph - N/A   Scattered Clouds
10:00 PM 65 °F 62 °F 88% 30.24 in - SSE 6.9 mph - -  
10:00 PM 64.4 °F 62.6 °F 94% 30.21 in 6.2 mi SSE 6.9 mph - N/A   Mostly Cloudy
10:30 PM 64.4 °F 62.6 °F 94% 30.21 in 6.2 mi SSE 5.8 mph - N/A   Mostly Cloudy
11:00 PM 65 °F 62 °F 87% 30.22 in - ENE 2.3 mph - -  
11:00 PM 64.4 °F 62.6 °F 94% 30.21 in 6.2 mi ENE 2.3 mph - N/A   Mostly Cloudy
11:30 PM 64.4 °F 62.6 °F 94% 30.21 in 6.2 mi Calm Calm - N/A   Scattered Clouds